Location: Caltech
(34.1382°N, 118.1253°W)
Time: 06:22:31
(UTC-08:00)

Oscar 10/S400 - Visible Passes

Search period start: 29 January 2015 00:00
Search period end: 08 February 2015 00:00
Orbit: 3891 x 35556 km, 25.9° (Epoch: 26 January)

Date Brightness Start Highest point End Pass type
(mag) Time Alt. Az. Time Alt. Az. Time Alt. Az.
29 Jan ? 13:32:55 10° W 14:03:50 51° SSW 00:29:50 10° ESE visible
30 Jan ? 12:48:20 10° W 13:14:24 55° SSW 23:38:43 10° SE visible
31 Jan ? 12:03:56 10° W 12:26:42 59° SSW 22:43:05 10° SE visible
01 Feb ? 11:19:36 10° W 11:40:08 63° SSW 21:38:24 10° SE visible
02 Feb ? 10:35:15 10° W 10:54:20 66° S 20:08:10 10° SE visible
03 Feb ? 09:50:48 10° W 10:09:03 68° S 11:14:08 10° ESE visible
04 Feb ? 09:06:08 10° W 09:24:09 69° S 10:10:00 10° ESE visible
